Location: Unspecified
(34.4480°N, 0.0000°E)
Time: 07:05:16
(UTC+00:00)

LightSail 2 - Visible Passes

Search period start: 19 November 2019 00:00
Search period end: 29 November 2019 00:00
Orbit: 700 x 727 km, 24.0° (Epoch: 17 November)

Date Brightness Start Highest point End Pass type
(mag) Time Alt. Az. Time Alt. Az. Time Alt. Az.
19 Nov 7.1 04:33:40 16° SSW 04:33:40 16° SSW 04:36:44 10° SSE visible
20 Nov 7.9 03:39:23 10° SSE 03:39:23 10° SSE 03:39:25 10° SSE visible
21 Nov 7.6 04:24:06 11° S 04:24:06 11° S 04:24:33 10° S visible
28 Nov 7.2 18:52:58 10° SSW 18:55:38 15° SSE 18:55:38 15° SSE visible
